Hierro Airport


Codes: GCHI/VDE
Name: Hierro Airport
City: El Hierro Island
Country: Spain
Elevation: 103 ft.
Wikipedia:

Photos at Hierro Airport


   Photos courtesy of SpottingLog. You can add your own sightings and photos by signing up for a free trial today.



No photos found.

Weather at Hierro Airport


Time (UTC)DescriptionTempratureWindCloud coverageVisibilityPressureHumidity
15-Apr-2024 15:00Clear Sky24°C2 mph, E0%10000m1017hPa73%
15-Apr-2024 18:00Clear Sky22°C7 mph, NE1%10000m1017hPa71%
15-Apr-2024 21:00Clear Sky19°C11 mph, NE3%10000m1018hPa75%
16-Apr-2024 00:00Clear Sky16°C16 mph, NE3%10000m1019hPa76%
16-Apr-2024 03:00Clear Sky16°C13 mph, NE2%10000m1017hPa81%
16-Apr-2024 06:00Few Clouds16°C9 mph, NE15%10000m1017hPa80%
16-Apr-2024 09:00Clear Sky16°C9 mph, NE1%10000m1018hPa77%
16-Apr-2024 12:00Clear Sky16°C7 mph, NE2%10000m1018hPa76%
16-Apr-2024 15:00Clear Sky17°C2 mph, S4%10000m1017hPa70%
16-Apr-2024 18:00Clear Sky18°C2 mph, SW3%10000m1016hPa67%
16-Apr-2024 21:00Clear Sky17°C7 mph, NE3%10000m1017hPa73%
17-Apr-2024 00:00Clear Sky16°C9 mph, NE1%10000m1017hPa73%
17-Apr-2024 03:00Clear Sky16°C9 mph, N0%10000m1015hPa74%
17-Apr-2024 06:00Clear Sky16°C7 mph, NE1%10000m1016hPa72%
17-Apr-2024 09:00Broken Clouds16°C7 mph, N63%10000m1017hPa70%
17-Apr-2024 12:00Broken Clouds17°C2 mph, N68%10000m1017hPa64%
17-Apr-2024 15:00Scattered Clouds18°C2 mph, NW37%10000m1016hPa59%
17-Apr-2024 18:00Broken Clouds17°C7 mph, NW67%10000m1015hPa68%
17-Apr-2024 21:00Overcast Clouds16°C7 mph, NW100%10000m1016hPa79%
18-Apr-2024 00:00Overcast Clouds16°C9 mph, NW100%10000m1017hPa81%
18-Apr-2024 03:00Overcast Clouds16°C7 mph, N100%10000m1015hPa81%
18-Apr-2024 06:00Broken Clouds16°C7 mph, N81%10000m1015hPa78%
18-Apr-2024 09:00Scattered Clouds16°C7 mph, N30%10000m1016hPa75%
18-Apr-2024 12:00Broken Clouds16°C4 mph, N67%10000m1017hPa71%
18-Apr-2024 15:00Overcast Clouds16°C7 mph, N100%10000m1016hPa68%
18-Apr-2024 18:00Overcast Clouds16°C9 mph, N100%10000m1016hPa72%
18-Apr-2024 21:00Overcast Clouds16°C9 mph, N100%10000m1017hPa81%
19-Apr-2024 00:00Overcast Clouds16°C9 mph, N100%10000m1017hPa79%
19-Apr-2024 03:00Overcast Clouds16°C9 mph, N100%10000m1016hPa78%
19-Apr-2024 06:00Overcast Clouds15°C9 mph, N98%10000m1016hPa78%
19-Apr-2024 09:00Overcast Clouds15°C7 mph, N100%10000m1017hPa77%
19-Apr-2024 12:00Overcast Clouds16°C7 mph, N99%10000m1018hPa76%
19-Apr-2024 15:00Broken Clouds16°C7 mph, N72%10000m1017hPa76%
19-Apr-2024 18:00Broken Clouds16°C11 mph, N84%10000m1016hPa77%
19-Apr-2024 21:00Scattered Clouds16°C11 mph, N34%10000m1018hPa81%
20-Apr-2024 00:00Broken Clouds16°C13 mph, N59%10000m1018hPa82%
20-Apr-2024 03:00Overcast Clouds15°C13 mph, NE100%10000m1016hPa81%
20-Apr-2024 06:00Overcast Clouds15°C16 mph, NE100%10000m1016hPa78%
20-Apr-2024 09:00Overcast Clouds15°C16 mph, NE99%10000m1017hPa78%
20-Apr-2024 12:00Overcast Clouds15°C13 mph, NE89%10000m1017hPa79%